Time,TemperatureF,DewpointF,PressureIn,WindDirection,WindDirectionDegrees,WindSpeedMPH,WindSpeedGustMPH,Humidity,HourlyPrecipIn,Conditions,Clouds,dailyrainin,SolarRadiationWatts/m^2,SoftwareType,DateUTC
2013-05-19 00:01:00,45.0,42.8,30.34,SE,130,1.0,1.0,92,0.00,,,0.00,0,Wunderground v.1.15,2013-05-19 04:01:00,
2013-05-19 00:02:00,45.0,42.8,30.34,SE,130,1.0,1.0,92,0.00,,,0.00,0,Wunderground v.1.15,2013-05-19 04:02:00,
2013-05-19 00:03:00,45.0,42.8,30.34,SE,130,1.0,1.0,92,0.00,,,0.00,0,Wunderground v.1.15,2013-05-19 04:03:00,
2013-05-19 00:04:00,45.0,42.8,30.33,SE,130,1.0,1.0,92,0.00,,,0.00,0,Wunderground v.1.15,2013-05-19 04:04:00,
2013-05-19 00:10:00,44.9,42.7,30.33,SE,130,1.0,1.0,92,0.00,,,0.00,0,Wunderground v.1.15,2013-05-19 04:10:00,
2013-05-19 00:16:00,44.8,42.9,30.34,SE,130,0.0,1.0,93,0.00,,,0.00,0,Wunderground v.1.15,2013-05-19 04:16:00,
2013-05-19 00:22:00,44.7,42.8,30.34,SE,130,0.0,0.0,93,0.00,,,0.00,0,Wunderground v.1.15,2013-05-19 04:22:00,
2013-05-19 00:27:00,44.6,42.4,30.34,SE,130,0.0,0.0,92,0.00,,,0.00,0,Wunderground v.1.15,2013-05-19 04:27:00,
2013-05-19 00:33:00,44.5,42.3,30.34,SE,130,0.0,0.0,92,0.00,,,0.00,0,Wunderground v.1.15,2013-05-19 04:33:00,
2013-05-19 00:38:00,44.5,42.6,30.34,SE,140,0.0,0.0,93,0.00,,,0.00,0,Wunderground v.1.15,2013-05-19 04:38:00,
2013-05-19 00:44:00,44.5,42.6,30.34,SE,140,0.0,0.0,93,0.00,,,0.00,0,Wunderground v.1.15,2013-05-19 04:44:00,
2013-05-19 00:49:00,44.4,42.5,30.34,SE,140,0.0,0.0,93,0.00,,,0.00,0,Wunderground v.1.15,2013-05-19 04:49:00,
2013-05-19 00:55:00,44.3,42.4,30.33,SE,140,0.0,0.0,93,0.00,,,0.00,0,Wunderground v.1.15,2013-05-19 04:55:00,
2013-05-19 01:00:00,44.3,42.4,30.33,SE,140,0.0,0.0,93,0.00,,,0.00,0,Wunderground v.1.15,2013-05-19 05:00:00,
2013-05-19 01:06:00,44.3,42.4,30.33,SE,140,0.0,2.0,93,0.00,,,0.00,0,Wunderground v.1.15,2013-05-19 05:06:00,
2013-05-19 01:11:00,44.4,42.8,30.33,SE,141,0.0,0.0,94,0.00,,,0.00,0,Wunderground v.1.15,2013-05-19 05:11:00,
2013-05-19 01:17:00,44.5,42.9,30.33,SE,141,0.0,0.0,94,0.00,,,0.00,0,Wunderground v.1.15,2013-05-19 05:17:00,
2013-05-19 01:23:00,44.4,42.8,30.33,ENE,76,0.0,0.0,94,0.00,,,0.00,0,Wunderground v.1.15,2013-05-19 05:23:00,
2013-05-19 01:28:00,44.3,42.7,30.33,ENE,76,0.0,0.0,94,0.00,,,0.00,0,Wunderground v.1.15,2013-05-19 05:28:00,
2013-05-19 01:33:00,44.2,42.3,30.33,East,80,0.0,0.0,93,0.00,,,0.00,0,Wunderground v.1.15,2013-05-19 05:33:00,
2013-05-19 01:39:00,44.0,42.4,30.33,SSE,157,0.0,1.0,94,0.00,,,0.00,0,Wunderground v.1.15,2013-05-19 05:39:00,
2013-05-19 01:44:00,44.0,42.4,30.34,South,171,0.0,2.0,94,0.00,,,0.00,0,Wunderground v.1.15,2013-05-19 05:44:00,
2013-05-19 01:50:00,43.8,41.9,30.34,West,273,0.0,2.0,93,0.00,,,0.00,0,Wunderground v.1.15,2013-05-19 05:50:00,
2013-05-19 01:56:00,43.5,41.6,30.34,West,281,0.0,2.0,93,0.00,,,0.00,0,Wunderground v.1.15,2013-05-19 05:56:00,
2013-05-19 02:02:00,43.2,41.3,30.33,West,281,0.0,0.0,93,0.00,,,0.00,0,Wunderground v.1.15,2013-05-19 06:02:00,
2013-05-19 02:07:00,43.1,41.2,30.34,West,281,0.0,0.0,93,0.00,,,0.00,0,Wunderground v.1.15,2013-05-19 06:07:00,
2013-05-19 02:13:00,42.9,41.0,30.34,West,281,0.0,0.0,93,0.00,,,0.00,0,Wunderground v.1.15,2013-05-19 06:13:00,
2013-05-19 02:18:00,42.7,40.8,30.34,West,281,0.0,0.0,93,0.00,,,0.00,0,Wunderground v.1.15,2013-05-19 06:18:00,
2013-05-19 02:24:00,42.5,40.6,30.34,West,281,0.0,0.0,93,0.00,,,0.00,0,Wunderground v.1.15,2013-05-19 06:24:00,
2013-05-19 02:29:00,42.5,40.6,30.33,West,281,0.0,0.0,93,0.00,,,0.00,0,Wunderground v.1.15,2013-05-19 06:29:00,
2013-05-19 02:34:00,42.4,40.8,30.33,West,281,0.0,0.0,94,0.00,,,0.00,0,Wunderground v.1.15,2013-05-19 06:34:00,
2013-05-19 02:40:00,42.2,40.6,30.34,West,281,0.0,0.0,94,0.00,,,0.00,0,Wunderground v.1.15,2013-05-19 06:40:00,
2013-05-19 02:45:00,42.1,40.5,30.33,West,281,0.0,0.0,94,0.00,,,0.00,0,Wunderground v.1.15,2013-05-19 06:45:00,
2013-05-19 02:50:00,42.0,40.4,30.33,West,281,0.0,0.0,94,0.00,,,0.00,0,Wunderground v.1.15,2013-05-19 06:50:00,
2013-05-19 02:55:00,41.9,40.3,30.33,West,281,0.0,0.0,94,0.00,,,0.00,0,Wunderground v.1.15,2013-05-19 06:55:00,
2013-05-19 03:00:00,41.8,40.2,30.34,West,281,0.0,0.0,94,0.00,,,0.00,0,Wunderground v.1.15,2013-05-19 07:00:00,
2013-05-19 03:06:00,41.6,40.0,30.33,West,281,0.0,0.0,94,0.00,,,0.00,0,Wunderground v.1.15,2013-05-19 07:06:00,
2013-05-19 03:12:00,41.5,39.9,30.33,West,281,0.0,0.0,94,0.00,,,0.00,0,Wunderground v.1.15,2013-05-19 07:12:00,
2013-05-19 03:18:00,41.4,39.8,30.33,West,281,0.0,1.0,94,0.00,,,0.00,0,Wunderground v.1.15,2013-05-19 07:18:00,
2013-05-19 03:23:00,41.3,39.7,30.34,West,281,0.0,0.0,94,0.00,,,0.00,0,Wunderground v.1.15,2013-05-19 07:23:00,
2013-05-19 03:28:00,41.3,39.7,30.34,West,281,0.0,0.0,94,0.00,,,0.00,0,Wunderground v.1.15,2013-05-19 07:28:00,
2013-05-19 03:34:00,41.4,40.1,30.34,West,281,0.0,1.0,95,0.00,,,0.00,0,Wunderground v.1.15,2013-05-19 07:34:00,
2013-05-19 03:39:00,41.5,40.2,30.34,West,281,0.0,1.0,95,0.00,,,0.00,0,Wunderground v.1.15,2013-05-19 07:39:00,
2013-05-19 03:44:00,41.6,40.3,30.33,West,281,0.0,0.0,95,0.00,,,0.00,0,Wunderground v.1.15,2013-05-19 07:44:00,
2013-05-19 03:50:00,41.8,40.5,30.34,West,281,0.0,0.0,95,0.00,,,0.00,0,Wunderground v.1.15,2013-05-19 07:50:00,
2013-05-19 03:56:00,42.0,40.7,30.34,West,281,0.0,0.0,95,0.00,,,0.00,0,Wunderground v.1.15,2013-05-19 07:56:00,
2013-05-19 04:01:00,42.1,40.8,30.34,West,281,0.0,0.0,95,0.00,,,0.00,0,Wunderground v.1.15,2013-05-19 08:01:00,
2013-05-19 04:07:00,42.2,40.9,30.34,West,281,0.0,0.0,95,0.00,,,0.00,0,Wunderground v.1.15,2013-05-19 08:07:00,
2013-05-19 04:13:00,42.3,41.2,30.34,West,281,0.0,0.0,96,0.00,,,0.00,0,Wunderground v.1.15,2013-05-19 08:13:00,
2013-05-19 04:18:00,42.5,41.4,30.34,West,281,0.0,0.0,96,0.00,,,0.00,0,Wunderground v.1.15,2013-05-19 08:18:00,
2013-05-19 04:23:00,42.9,41.8,30.34,ENE,67,0.0,1.0,96,0.00,,,0.00,0,Wunderground v.1.15,2013-05-19 08:23:00,
2013-05-19 04:29:00,43.5,42.4,30.34,East,84,0.0,2.0,96,0.00,,,0.00,0,Wunderground v.1.15,2013-05-19 08:29:00,
2013-05-19 04:34:00,43.8,42.7,30.34,East,88,0.0,1.0,96,0.00,,,0.00,0,Wunderground v.1.15,2013-05-19 08:34:00,
2013-05-19 04:39:00,44.1,43.0,30.34,East,89,0.0,1.0,96,0.00,,,0.00,0,Wunderground v.1.15,2013-05-19 08:39:00,
2013-05-19 04:44:00,44.3,43.2,30.34,East,82,1.0,2.0,96,0.00,,,0.00,0,Wunderground v.1.15,2013-05-19 08:44:00,
2013-05-19 04:49:00,44.5,43.4,30.34,East,83,0.0,2.0,96,0.00,,,0.00,0,Wunderground v.1.15,2013-05-19 08:49:00,
2013-05-19 04:54:00,44.6,43.5,30.34,East,83,0.0,1.0,96,0.00,,,0.00,0,Wunderground v.1.15,2013-05-19 08:54:00,
2013-05-19 05:00:00,44.7,43.4,30.35,East,101,0.0,1.0,95,0.00,,,0.00,0,Wunderground v.1.15,2013-05-19 09:00:00,
2013-05-19 05:06:00,44.8,43.5,30.35,ENE,65,0.0,1.0,95,0.00,,,0.00,0,Wunderground v.1.15,2013-05-19 09:06:00,
2013-05-19 05:11:00,44.9,43.6,30.35,NE,45,0.0,2.0,95,0.00,,,0.00,0,Wunderground v.1.15,2013-05-19 09:11:00,
2013-05-19 05:17:00,45.0,43.7,30.35,NE,46,0.0,2.0,95,0.00,,,0.00,5,Wunderground v.1.15,2013-05-19 09:17:00,
2013-05-19 05:23:00,45.1,43.8,30.36,NE,45,0.0,0.0,95,0.00,,,0.00,9,Wunderground v.1.15,2013-05-19 09:23:00,
2013-05-19 05:29:00,45.2,43.6,30.36,NE,45,0.0,1.0,94,0.00,,,0.00,11,Wunderground v.1.15,2013-05-19 09:29:00,
2013-05-19 05:34:00,45.3,43.7,30.36,East,85,0.0,1.0,94,0.00,,,0.00,12,Wunderground v.1.15,2013-05-19 09:34:00,
2013-05-19 05:40:00,45.4,43.8,30.36,NE,44,1.0,1.0,94,0.00,,,0.00,18,Wunderground v.1.15,2013-05-19 09:40:00,
2013-05-19 05:45:00,45.5,43.9,30.36,NE,39,1.0,3.0,94,0.00,,,0.00,21,Wunderground v.1.15,2013-05-19 09:45:00,
2013-05-19 05:51:00,45.6,43.7,30.36,NE,51,0.0,0.0,93,0.00,,,0.00,26,Wunderground v.1.15,2013-05-19 09:51:00,
2013-05-19 05:56:00,45.6,43.7,30.36,NE,51,0.0,0.0,93,0.00,,,0.00,30,Wunderground v.1.15,2013-05-19 09:56:00,
2013-05-19 06:01:00,45.8,43.9,30.36,NE,47,0.0,1.0,93,0.00,,,0.00,30,Wunderground v.1.15,2013-05-19 10:01:00,
2013-05-19 06:07:00,45.9,44.0,30.36,East,96,0.0,1.0,93,0.00,,,0.00,39,Wunderground v.1.15,2013-05-19 10:07:00,
2013-05-19 06:13:00,46.1,44.2,30.37,East,96,0.0,1.0,93,0.00,,,0.00,39,Wunderground v.1.15,2013-05-19 10:13:00,
2013-05-19 06:18:00,46.2,44.0,30.36,NE,34,0.0,1.0,92,0.00,,,0.00,49,Wunderground v.1.15,2013-05-19 10:18:00,
2013-05-19 06:23:00,46.4,44.2,30.36,East,86,0.0,0.0,92,0.00,,,0.00,56,Wunderground v.1.15,2013-05-19 10:23:00,
2013-05-19 06:28:00,46.5,44.3,30.36,East,88,0.0,0.0,92,0.00,,,0.00,62,Wunderground v.1.15,2013-05-19 10:28:00,
2013-05-19 06:34:00,46.7,44.2,30.36,East,90,0.0,0.0,91,0.00,,,0.00,81,Wunderground v.1.15,2013-05-19 10:34:00,
2013-05-19 06:40:00,46.9,44.4,30.36,NE,49,0.0,0.0,91,0.00,,,0.00,76,Wunderground v.1.15,2013-05-19 10:40:00,
2013-05-19 06:45:00,47.1,44.6,30.36,ENE,59,0.0,1.0,91,0.00,,,0.00,88,Wunderground v.1.15,2013-05-19 10:45:00,
2013-05-19 06:50:00,47.3,44.5,30.36,SE,128,0.0,0.0,90,0.00,,,0.00,93,Wunderground v.1.15,2013-05-19 10:50:00,
2013-05-19 06:55:00,47.5,44.7,30.36,SE,127,0.0,1.0,90,0.00,,,0.00,100,Wunderground v.1.15,2013-05-19 10:55:00,
2013-05-19 07:00:00,47.7,44.6,30.36,ESE,117,0.0,0.0,89,0.00,,,0.00,100,Wunderground v.1.15,2013-05-19 11:00:00,
2013-05-19 07:06:00,48.0,44.6,30.36,SE,128,0.0,0.0,88,0.00,,,0.00,116,Wunderground v.1.15,2013-05-19 11:06:00,
2013-05-19 07:12:00,48.3,44.6,30.36,SE,144,1.0,2.0,87,0.00,,,0.00,128,Wunderground v.1.15,2013-05-19 11:12:00,
2013-05-19 07:18:00,48.5,44.5,30.36,SSE,154,1.0,2.0,86,0.00,,,0.00,113,Wunderground v.1.15,2013-05-19 11:18:00,
2013-05-19 07:24:00,48.8,44.8,30.36,ESE,104,1.0,1.0,86,0.00,,,0.00,104,Wunderground v.1.15,2013-05-19 11:24:00,
2013-05-19 07:29:00,49.0,44.7,30.37,ESE,123,1.0,1.0,85,0.00,,,0.00,88,Wunderground v.1.15,2013-05-19 11:29:00,
2013-05-19 07:34:00,49.1,44.5,30.37,ESE,111,1.0,2.0,84,0.00,,,0.00,128,Wunderground v.1.15,2013-05-19 11:34:00,
2013-05-19 07:40:00,49.2,44.6,30.37,SE,133,1.0,1.0,84,0.00,,,0.00,137,Wunderground v.1.15,2013-05-19 11:40:00,
2013-05-19 07:45:00,49.4,44.5,30.37,SE,144,1.0,4.0,83,0.00,,,0.00,144,Wunderground v.1.15,2013-05-19 11:45:00,
2013-05-19 07:50:00,49.5,44.6,30.37,East,97,2.0,2.0,83,0.00,,,0.00,169,Wunderground v.1.15,2013-05-19 11:50:00,
2013-05-19 07:55:00,49.6,44.6,30.37,ENE,74,1.0,2.0,83,0.00,,,0.00,165,Wunderground v.1.15,2013-05-19 11:55:00,
2013-05-19 08:01:00,49.9,44.6,30.37,East,90,1.0,1.0,82,0.00,,,0.00,171,Wunderground v.1.15,2013-05-19 12:01:00,
2013-05-19 08:06:00,50.0,44.7,30.37,SE,141,1.0,1.0,82,0.00,,,0.00,181,Wunderground v.1.15,2013-05-19 12:06:00,
2013-05-19 08:12:00,50.2,44.6,30.37,SE,127,1.0,1.0,81,0.00,,,0.00,193,Wunderground v.1.15,2013-05-19 12:12:00,
2013-05-19 08:17:00,50.4,44.8,30.37,ESE,117,1.0,3.0,81,0.00,,,0.00,211,Wunderground v.1.15,2013-05-19 12:17:00,
2013-05-19 08:22:00,50.5,44.9,30.38,SSE,150,1.0,1.0,81,0.00,,,0.00,197,Wunderground v.1.15,2013-05-19 12:22:00,
2013-05-19 08:28:00,50.5,44.6,30.38,ESE,117,1.0,6.0,80,0.00,,,0.00,192,Wunderground v.1.15,2013-05-19 12:28:00,
2013-05-19 08:33:00,50.6,45.0,30.38,SE,132,2.0,3.0,81,0.00,,,0.00,202,Wunderground v.1.15,2013-05-19 12:33:00,
2013-05-19 08:39:00,50.9,44.9,30.38,SE,131,1.0,3.0,80,0.00,,,0.00,246,Wunderground v.1.15,2013-05-19 12:39:00,
2013-05-19 08:45:00,51.0,45.0,30.37,SE,130,1.0,3.0,80,0.00,,,0.00,274,Wunderground v.1.15,2013-05-19 12:45:00,
2013-05-19 08:50:00,51.1,44.8,30.37,SSE,157,2.0,2.0,79,0.00,,,0.00,302,Wunderground v.1.15,2013-05-19 12:50:00,
2013-05-19 08:55:00,51.0,44.4,30.37,South,178,2.0,7.0,78,0.00,,,0.00,279,Wunderground v.1.15,2013-05-19 12:55:00,
2013-05-19 09:00:00,51.0,44.7,30.37,SE,126,3.0,4.0,79,0.00,,,0.00,301,Wunderground v.1.15,2013-05-19 13:00:00,
2013-05-19 09:05:00,51.2,44.9,30.37,SSE,155,3.0,5.0,79,0.00,,,0.00,309,Wunderground v.1.15,2013-05-19 13:05:00,
2013-05-19 09:11:00,51.2,44.6,30.37,SE,144,3.0,4.0,78,0.00,,,0.00,308,Wunderground v.1.15,2013-05-19 13:11:00,
2013-05-19 09:16:00,51.3,45.0,30.37,South,182,3.0,4.0,79,0.00,,,0.00,338,Wunderground v.1.15,2013-05-19 13:16:00,
2013-05-19 09:22:00,51.8,45.2,30.37,SSE,157,2.0,4.0,78,0.00,,,0.00,343,Wunderground v.1.15,2013-05-19 13:22:00,
2013-05-19 09:27:00,51.9,45.3,30.38,East,98,2.0,4.0,78,0.00,,,0.00,336,Wunderground v.1.15,2013-05-19 13:27:00,
2013-05-19 09:32:00,52.0,45.4,30.38,ENE,70,2.0,2.0,78,0.00,,,0.00,431,Wunderground v.1.15,2013-05-19 13:32:00,
2013-05-19 09:37:00,52.7,46.0,30.38,East,97,1.0,2.0,78,0.00,,,0.00,555,Wunderground v.1.15,2013-05-19 13:37:00,
2013-05-19 09:43:00,53.7,46.3,30.38,SE,142,1.0,4.0,76,0.00,,,0.00,378,Wunderground v.1.15,2013-05-19 13:43:00,
2013-05-19 09:48:00,53.8,45.7,30.38,South,181,2.0,4.0,74,0.00,,,0.00,471,Wunderground v.1.15,2013-05-19 13:48:00,
2013-05-19 09:53:00,53.9,45.8,30.38,SW,220,3.0,4.0,74,0.00,,,0.00,380,Wunderground v.1.15,2013-05-19 13:53:00,
2013-05-19 09:58:00,53.9,45.8,30.38,SSE,156,3.0,5.0,74,0.00,,,0.00,439,Wunderground v.1.15,2013-05-19 13:58:00,
2013-05-19 10:04:00,54.1,46.0,30.38,SSW,199,3.0,4.0,74,0.00,,,0.00,554,Wunderground v.1.15,2013-05-19 14:04:00,
2013-05-19 10:09:00,54.4,46.3,30.38,NNE,31,1.0,4.0,74,0.00,,,0.00,424,Wunderground v.1.15,2013-05-19 14:09:00,
2013-05-19 10:15:00,54.6,46.1,30.38,North,350,1.0,2.0,73,0.00,,,0.00,489,Wunderground v.1.15,2013-05-19 14:15:00,
2013-05-19 10:21:00,54.9,46.4,30.39,SSE,161,2.0,2.0,73,0.00,,,0.00,499,Wunderground v.1.15,2013-05-19 14:21:00,
2013-05-19 10:26:00,55.1,46.6,30.38,South,170,3.0,5.0,73,0.00,,,0.00,1051,Wunderground v.1.15,2013-05-19 14:26:00,
2013-05-19 10:32:00,55.9,47.0,30.39,SSE,148,3.0,5.0,72,0.00,,,0.00,406,Wunderground v.1.15,2013-05-19 14:32:00,
2013-05-19 10:38:00,55.9,46.3,30.38,SE,136,2.0,5.0,70,0.00,,,0.00,909,Wunderground v.1.15,2013-05-19 14:38:00,
2013-05-19 10:43:00,56.3,47.0,30.38,East,79,1.0,2.0,71,0.00,,,0.00,858,Wunderground v.1.15,2013-05-19 14:43:00,
2013-05-19 10:49:00,56.9,47.2,30.38,ESE,110,2.0,4.0,70,0.00,,,0.00,942,Wunderground v.1.15,2013-05-19 14:49:00,
2013-05-19 10:54:00,56.7,46.6,30.38,North,355,2.0,3.0,69,0.00,,,0.00,684,Wunderground v.1.15,2013-05-19 14:54:00,
2013-05-19 10:59:00,56.3,46.6,30.38,NNE,12,2.0,3.0,70,0.00,,,0.00,833,Wunderground v.1.15,2013-05-19 14:59:00,
2013-05-19 11:05:00,56.9,47.2,30.38,SE,138,2.0,6.0,70,0.00,,,0.00,865,Wunderground v.1.15,2013-05-19 15:05:00,
2013-05-19 11:10:00,57.5,47.8,30.38,ESE,102,2.0,2.0,70,0.00,,,0.00,877,Wunderground v.1.15,2013-05-19 15:10:00,
2013-05-19 11:16:00,57.3,47.2,30.38,ENE,63,2.0,8.0,69,0.00,,,0.00,916,Wunderground v.1.15,2013-05-19 15:16:00,
2013-05-19 11:21:00,57.1,46.6,30.38,NNE,15,3.0,6.0,68,0.00,,,0.00,893,Wunderground v.1.15,2013-05-19 15:21:00,
2013-05-19 11:26:00,57.2,47.5,30.38,ENE,76,3.0,6.0,70,0.00,,,0.00,907,Wunderground v.1.15,2013-05-19 15:26:00,
2013-05-19 11:31:00,57.8,48.1,30.37,ESE,123,2.0,5.0,70,0.00,,,0.00,911,Wunderground v.1.15,2013-05-19 15:31:00,
2013-05-19 11:36:00,58.0,47.5,30.37,SSE,150,2.0,5.0,68,0.00,,,0.00,882,Wunderground v.1.15,2013-05-19 15:36:00,
2013-05-19 11:41:00,58.4,47.5,30.37,SE,132,2.0,7.0,67,0.00,,,0.00,895,Wunderground v.1.15,2013-05-19 15:41:00,
2013-05-19 11:46:00,58.1,47.6,30.37,NE,46,3.0,7.0,68,0.00,,,0.00,865,Wunderground v.1.15,2013-05-19 15:46:00,
2013-05-19 11:51:00,58.3,48.2,30.37,NNE,20,2.0,4.0,69,0.00,,,0.00,858,Wunderground v.1.15,2013-05-19 15:51:00,
2013-05-19 11:57:00,58.2,47.7,30.37,NNE,26,2.0,4.0,68,0.00,,,0.00,868,Wunderground v.1.15,2013-05-19 15:57:00,
2013-05-19 12:02:00,58.8,48.6,30.37,South,171,3.0,3.0,69,0.00,,,0.00,835,Wunderground v.1.15,2013-05-19 16:02:00,
2013-05-19 12:07:00,59.3,48.3,30.37,SSE,166,2.0,6.0,67,0.00,,,0.00,933,Wunderground v.1.15,2013-05-19 16:07:00,
2013-05-19 12:12:00,59.2,47.8,30.37,East,82,2.0,2.0,66,0.00,,,0.00,860,Wunderground v.1.15,2013-05-19 16:12:00,
2013-05-19 12:17:00,59.9,48.9,30.37,NE,55,2.0,3.0,67,0.00,,,0.00,844,Wunderground v.1.15,2013-05-19 16:17:00,
2013-05-19 12:22:00,60.1,48.7,30.37,SE,136,2.0,5.0,66,0.00,,,0.00,935,Wunderground v.1.15,2013-05-19 16:22:00,
2013-05-19 12:27:00,60.2,48.4,30.37,SSE,164,2.0,5.0,65,0.00,,,0.00,898,Wunderground v.1.15,2013-05-19 16:27:00,
2013-05-19 12:33:00,60.7,49.3,30.36,SSE,153,1.0,5.0,66,0.00,,,0.00,900,Wunderground v.1.15,2013-05-19 16:33:00,
2013-05-19 12:38:00,60.9,48.6,30.36,SW,219,2.0,5.0,64,0.00,,,0.00,930,Wunderground v.1.15,2013-05-19 16:38:00,
2013-05-19 12:43:00,61.3,49.4,30.36,South,175,2.0,3.0,65,0.00,,,0.00,932,Wunderground v.1.15,2013-05-19 16:43:00,
2013-05-19 12:48:00,61.6,49.3,30.36,SE,126,2.0,5.0,64,0.00,,,0.00,877,Wunderground v.1.15,2013-05-19 16:48:00,
2013-05-19 12:53:00,61.2,48.5,30.36,ESE,122,2.0,3.0,63,0.00,,,0.00,939,Wunderground v.1.15,2013-05-19 16:53:00,
2013-05-19 12:58:00,61.5,49.6,30.35,East,82,2.0,4.0,65,0.00,,,0.00,875,Wunderground v.1.15,2013-05-19 16:58:00,
2013-05-19 13:03:00,61.8,49.1,30.35,SE,129,2.0,5.0,63,0.00,,,0.00,921,Wunderground v.1.15,2013-05-19 17:03:00,
2013-05-19 13:09:00,61.8,49.1,30.35,East,88,3.0,5.0,63,0.00,,,0.00,926,Wunderground v.1.15,2013-05-19 17:09:00,
2013-05-19 13:14:00,61.6,48.4,30.35,SSW,192,3.0,6.0,62,0.00,,,0.00,937,Wunderground v.1.15,2013-05-19 17:14:00,
2013-05-19 13:20:00,61.9,49.2,30.35,South,176,2.0,2.0,63,0.00,,,0.00,896,Wunderground v.1.15,2013-05-19 17:20:00,
2013-05-19 13:25:00,62.4,49.2,30.35,NE,48,2.0,2.0,62,0.00,,,0.00,923,Wunderground v.1.15,2013-05-19 17:25:00,
2013-05-19 13:31:00,62.4,48.8,30.35,NE,34,2.0,9.0,61,0.00,,,0.00,842,Wunderground v.1.15,2013-05-19 17:31:00,
2013-05-19 13:36:00,61.8,49.1,30.34,East,101,2.0,9.0,63,0.00,,,0.00,835,Wunderground v.1.15,2013-05-19 17:36:00,
2013-05-19 13:41:00,61.7,49.4,30.35,SE,132,2.0,3.0,64,0.00,,,0.00,861,Wunderground v.1.15,2013-05-19 17:41:00,
2013-05-19 13:47:00,61.2,48.5,30.34,SE,124,3.0,8.0,63,0.00,,,0.00,888,Wunderground v.1.15,2013-05-19 17:47:00,
2013-05-19 13:52:00,60.9,48.6,30.34,South,169,4.0,4.0,64,0.00,,,0.00,861,Wunderground v.1.15,2013-05-19 17:52:00,
2013-05-19 13:57:00,61.1,48.8,30.33,SSE,154,3.0,4.0,64,0.00,,,0.00,737,Wunderground v.1.15,2013-05-19 17:57:00,
2013-05-19 14:02:00,61.7,49.4,30.33,ENE,75,2.0,5.0,64,0.00,,,0.00,789,Wunderground v.1.15,2013-05-19 18:02:00,
2013-05-19 14:07:00,61.2,48.5,30.33,East,82,3.0,5.0,63,0.00,,,0.00,735,Wunderground v.1.15,2013-05-19 18:07:00,
2013-05-19 14:12:00,61.4,49.5,30.33,ENE,77,2.0,2.0,65,0.00,,,0.00,643,Wunderground v.1.15,2013-05-19 18:12:00,
2013-05-19 14:18:00,61.5,48.8,30.33,SSE,158,1.0,7.0,63,0.00,,,0.00,654,Wunderground v.1.15,2013-05-19 18:18:00,
2013-05-19 14:23:00,61.4,49.1,30.33,SW,217,2.0,4.0,64,0.00,,,0.00,694,Wunderground v.1.15,2013-05-19 18:23:00,
2013-05-19 14:28:00,61.6,49.3,30.33,South,173,2.0,8.0,64,0.00,,,0.00,705,Wunderground v.1.15,2013-05-19 18:28:00,
2013-05-19 14:33:00,61.2,48.5,30.32,ESE,123,3.0,6.0,63,0.00,,,0.00,691,Wunderground v.1.15,2013-05-19 18:33:00,
2013-05-19 14:38:00,61.0,48.7,30.32,SE,146,4.0,6.0,64,0.00,,,0.00,628,Wunderground v.1.15,2013-05-19 18:38:00,
2013-05-19 14:44:00,60.9,48.6,30.32,SE,143,3.0,9.0,64,0.00,,,0.00,598,Wunderground v.1.15,2013-05-19 18:44:00,
2013-05-19 14:50:00,60.8,48.5,30.31,SSE,148,4.0,4.0,64,0.00,,,0.00,471,Wunderground v.1.15,2013-05-19 18:50:00,
2013-05-19 14:55:00,60.4,48.2,30.31,SE,131,4.0,7.0,64,0.00,,,0.00,504,Wunderground v.1.15,2013-05-19 18:55:00,
2013-05-19 15:00:00,60.3,48.5,30.31,SSE,160,4.0,4.0,65,0.00,,,0.00,489,Wunderground v.1.15,2013-05-19 19:00:00,
2013-05-19 15:05:00,60.7,48.9,30.32,SSE,155,2.0,4.0,65,0.00,,,0.00,497,Wunderground v.1.15,2013-05-19 19:05:00,
2013-05-19 15:11:00,60.5,48.3,30.31,SE,136,2.0,5.0,64,0.00,,,0.00,606,Wunderground v.1.15,2013-05-19 19:11:00,
2013-05-19 15:16:00,60.2,48.4,30.32,SSE,157,3.0,5.0,65,0.00,,,0.00,482,Wunderground v.1.15,2013-05-19 19:16:00,
2013-05-19 15:21:00,59.8,48.4,30.31,South,176,4.0,6.0,66,0.00,,,0.00,422,Wunderground v.1.15,2013-05-19 19:21:00,
2013-05-19 15:27:00,59.7,48.7,30.32,SSE,159,3.0,6.0,67,0.00,,,0.00,452,Wunderground v.1.15,2013-05-19 19:27:00,
2013-05-19 15:32:00,59.4,48.4,30.32,NE,48,4.0,5.0,67,0.00,,,0.00,410,Wunderground v.1.15,2013-05-19 19:32:00,
2013-05-19 15:37:00,59.1,48.5,30.31,SE,139,3.0,8.0,68,0.00,,,0.00,371,Wunderground v.1.15,2013-05-19 19:37:00,
2013-05-19 15:42:00,58.7,48.2,30.31,South,190,3.0,5.0,68,0.00,,,0.00,338,Wunderground v.1.15,2013-05-19 19:42:00,
2013-05-19 15:47:00,58.6,48.1,30.31,South,178,3.0,6.0,68,0.00,,,0.00,348,Wunderground v.1.15,2013-05-19 19:47:00,
2013-05-19 15:52:00,58.1,48.0,30.31,SE,132,3.0,5.0,69,0.00,,,0.00,348,Wunderground v.1.15,2013-05-19 19:52:00,
2013-05-19 15:57:00,57.8,48.1,30.31,SSE,152,3.0,5.0,70,0.00,,,0.00,339,Wunderground v.1.15,2013-05-19 19:57:00,
2013-05-19 16:02:00,57.4,47.7,30.31,South,181,3.0,4.0,70,0.00,,,0.00,359,Wunderground v.1.15,2013-05-19 20:02:00,
2013-05-19 16:08:00,57.4,48.1,30.31,ESE,114,3.0,4.0,71,0.00,,,0.00,378,Wunderground v.1.15,2013-05-19 20:08:00,
2013-05-19 16:13:00,57.6,48.6,30.31,SE,132,2.0,5.0,72,0.00,,,0.00,374,Wunderground v.1.15,2013-05-19 20:13:00,
2013-05-19 16:18:00,57.4,48.1,30.31,SE,128,3.0,8.0,71,0.00,,,0.00,332,Wunderground v.1.15,2013-05-19 20:18:00,
2013-05-19 16:24:00,56.9,48.3,30.31,SE,131,4.0,4.0,73,0.00,,,0.00,316,Wunderground v.1.15,2013-05-19 20:24:00,
2013-05-19 16:29:00,56.6,47.7,30.31,SE,130,3.0,8.0,72,0.00,,,0.00,250,Wunderground v.1.15,2013-05-19 20:29:00,
2013-05-19 16:35:00,56.2,47.7,30.31,SE,127,4.0,7.0,73,0.00,,,0.00,264,Wunderground v.1.15,2013-05-19 20:35:00,
2013-05-19 16:40:00,55.9,47.7,30.31,ESE,109,4.0,8.0,74,0.00,,,0.00,274,Wunderground v.1.15,2013-05-19 20:40:00,
2013-05-19 16:45:00,55.5,47.7,30.31,SE,133,5.0,8.0,75,0.00,,,0.00,246,Wunderground v.1.15,2013-05-19 20:45:00,
2013-05-19 16:51:00,55.3,47.5,30.31,ESE,113,4.0,5.0,75,0.00,,,0.00,197,Wunderground v.1.15,2013-05-19 20:51:00,
2013-05-19 16:57:00,55.3,47.9,30.31,SE,140,3.0,7.0,76,0.00,,,0.00,190,Wunderground v.1.15,2013-05-19 20:57:00,
2013-05-19 17:03:00,55.0,47.9,30.31,SE,132,3.0,4.0,77,0.00,,,0.00,204,Wunderground v.1.15,2013-05-19 21:03:00,
2013-05-19 17:08:00,54.8,47.7,30.31,SSE,154,4.0,7.0,77,0.00,,,0.00,204,Wunderground v.1.15,2013-05-19 21:08:00,
2013-05-19 17:14:00,54.4,47.7,30.31,SE,131,5.0,9.0,78,0.00,,,0.00,216,Wunderground v.1.15,2013-05-19 21:14:00,
2013-05-19 17:20:00,54.2,47.8,30.31,South,180,5.0,5.0,79,0.00,,,0.00,216,Wunderground v.1.15,2013-05-19 21:20:00,
2013-05-19 17:25:00,54.1,48.1,30.30,SSE,165,4.0,6.0,80,0.00,,,0.00,262,Wunderground v.1.15,2013-05-19 21:25:00,
2013-05-19 17:30:00,54.0,48.0,30.31,SSW,198,4.0,5.0,80,0.00,,,0.00,241,Wunderground v.1.15,2013-05-19 21:30:00,
2013-05-19 17:35:00,53.7,47.7,30.30,South,175,5.0,11.0,80,0.00,,,0.00,179,Wunderground v.1.15,2013-05-19 21:35:00,
2013-05-19 17:40:00,53.1,47.4,30.30,SSW,196,6.0,6.0,81,0.00,,,0.00,181,Wunderground v.1.15,2013-05-19 21:40:00,
2013-05-19 17:46:00,52.7,47.4,30.30,SE,127,5.0,7.0,82,0.00,,,0.00,185,Wunderground v.1.15,2013-05-19 21:46:00,
2013-05-19 17:51:00,52.5,47.2,30.30,South,185,4.0,10.0,82,0.00,,,0.00,176,Wunderground v.1.15,2013-05-19 21:51:00,
2013-05-19 17:56:00,52.3,47.0,30.30,ESE,123,4.0,10.0,82,0.00,,,0.00,151,Wunderground v.1.15,2013-05-19 21:56:00,
2013-05-19 18:01:00,52.2,47.2,30.30,ESE,103,3.0,3.0,83,0.00,,,0.00,146,Wunderground v.1.15,2013-05-19 22:01:00,
2013-05-19 18:06:00,52.1,47.1,30.30,SE,129,2.0,5.0,83,0.00,,,0.00,171,Wunderground v.1.15,2013-05-19 22:06:00,
2013-05-19 18:12:00,52.2,47.5,30.30,East,92,2.0,3.0,84,0.00,,,0.00,223,Wunderground v.1.15,2013-05-19 22:12:00,
2013-05-19 18:17:00,52.1,47.4,30.30,East,101,2.0,6.0,84,0.00,,,0.00,118,Wunderground v.1.15,2013-05-19 22:17:00,
2013-05-19 18:22:00,51.7,47.0,30.30,SE,138,4.0,4.0,84,0.00,,,0.00,83,Wunderground v.1.15,2013-05-19 22:22:00,
2013-05-19 18:28:00,51.2,46.8,30.30,East,95,4.0,6.0,85,0.00,,,0.00,74,Wunderground v.1.15,2013-05-19 22:28:00,
2013-05-19 18:33:00,50.9,46.9,30.30,SE,138,3.0,6.0,86,0.00,,,0.00,58,Wunderground v.1.15,2013-05-19 22:33:00,
2013-05-19 18:38:00,50.7,47.0,30.30,ESE,123,3.0,6.0,87,0.00,,,0.00,47,Wunderground v.1.15,2013-05-19 22:38:00,
2013-05-19 18:43:00,50.6,46.9,30.30,ESE,121,3.0,4.0,87,0.00,,,0.00,42,Wunderground v.1.15,2013-05-19 22:43:00,
2013-05-19 18:48:00,50.6,46.9,30.30,SE,146,2.0,4.0,87,0.00,,,0.00,37,Wunderground v.1.15,2013-05-19 22:48:00,
2013-05-19 18:53:00,50.6,47.2,30.30,SSE,163,1.0,3.0,88,0.00,,,0.00,26,Wunderground v.1.15,2013-05-19 22:53:00,
2013-05-19 18:59:00,50.5,47.1,30.30,SE,136,2.0,5.0,88,0.00,,,0.00,25,Wunderground v.1.15,2013-05-19 22:59:00,
2013-05-19 19:04:00,50.3,46.9,30.30,SSE,167,3.0,6.0,88,0.00,,,0.00,21,Wunderground v.1.15,2013-05-19 23:04:00,
2013-05-19 19:09:00,50.2,47.1,30.30,South,171,2.0,6.0,89,0.00,,,0.00,16,Wunderground v.1.15,2013-05-19 23:09:00,
2013-05-19 19:14:00,50.1,47.3,30.30,SE,130,2.0,8.0,90,0.00,,,0.00,12,Wunderground v.1.15,2013-05-19 23:14:00,
2013-05-19 19:20:00,49.9,47.4,30.30,SE,135,3.0,5.0,91,0.00,,,0.00,9,Wunderground v.1.15,2013-05-19 23:20:00,
2013-05-19 19:25:00,49.8,47.6,30.29,SE,133,2.0,5.0,92,0.00,,,0.00,7,Wunderground v.1.15,2013-05-19 23:25:00,
2013-05-19 19:30:00,49.8,47.6,30.30,South,169,2.0,2.0,92,0.00,,,0.00,5,Wunderground v.1.15,2013-05-19 23:30:00,
2013-05-19 19:35:00,49.7,47.5,30.30,SE,129,2.0,5.0,92,0.00,,,0.00,0,Wunderground v.1.15,2013-05-19 23:35:00,
2013-05-19 19:41:00,49.6,47.7,30.30,WSW,253,3.0,6.0,93,0.00,,,0.00,0,Wunderground v.1.15,2013-05-19 23:41:00,
2013-05-19 19:47:00,49.5,47.6,30.30,SSE,151,4.0,6.0,93,0.00,,,0.00,0,Wunderground v.1.15,2013-05-19 23:47:00,
2013-05-19 19:52:00,49.4,47.5,30.30,SE,125,4.0,6.0,93,0.00,,,0.00,0,Wunderground v.1.15,2013-05-19 23:52:00,
2013-05-19 19:57:00,49.4,47.7,30.29,SE,138,3.0,6.0,94,0.00,,,0.00,0,Wunderground v.1.15,2013-05-19 23:57:00,
2013-05-19 20:02:00,49.2,47.5,30.29,SE,126,4.0,5.0,94,0.00,,,0.00,0,Wunderground v.1.15,2013-05-20 00:02:00,
2013-05-19 20:08:00,49.1,47.4,30.29,SSE,163,4.0,8.0,94,0.00,,,0.00,0,Wunderground v.1.15,2013-05-20 00:08:00,
2013-05-19 20:14:00,49.1,47.4,30.29,SE,145,2.0,4.0,94,0.00,,,0.00,0,Wunderground v.1.15,2013-05-20 00:14:00,
2013-05-19 20:19:00,49.0,47.6,30.29,SE,132,3.0,7.0,95,0.00,,,0.00,0,Wunderground v.1.15,2013-05-20 00:19:00,
2013-05-19 20:24:00,49.0,47.6,30.29,South,173,3.0,3.0,95,0.00,,,0.00,0,Wunderground v.1.15,2013-05-20 00:24:00,
2013-05-19 20:29:00,48.8,47.4,30.29,South,174,3.0,6.0,95,0.00,,,0.00,0,Wunderground v.1.15,2013-05-20 00:29:00,
2013-05-19 20:34:00,48.8,47.4,30.29,SSE,163,3.0,5.0,95,0.00,,,0.00,0,Wunderground v.1.15,2013-05-20 00:34:00,
2013-05-19 20:39:00,48.8,47.4,30.29,SSE,163,2.0,5.0,95,0.00,,,0.00,0,Wunderground v.1.15,2013-05-20 00:39:00,
2013-05-19 20:45:00,48.8,47.4,30.29,South,173,2.0,2.0,95,0.00,,,0.00,0,Wunderground v.1.15,2013-05-20 00:45:00,
2013-05-19 20:50:00,48.8,47.4,30.29,SSE,159,2.0,2.0,95,0.00,,,0.00,0,Wunderground v.1.15,2013-05-20 00:50:00,
2013-05-19 20:55:00,48.8,47.7,30.29,SE,132,2.0,4.0,96,0.00,,,0.00,0,Wunderground v.1.15,2013-05-20 00:55:00,
2013-05-19 21:00:00,48.8,47.7,30.29,South,171,2.0,2.0,96,0.00,,,0.00,0,Wunderground v.1.15,2013-05-20 01:00:00,
2013-05-19 21:06:00,48.7,47.6,30.28,South,174,2.0,6.0,96,0.00,,,0.00,0,Wunderground v.1.15,2013-05-20 01:06:00,
2013-05-19 21:12:00,48.8,47.7,30.28,South,171,2.0,2.0,96,0.00,,,0.00,0,Wunderground v.1.15,2013-05-20 01:12:00,
2013-05-19 21:17:00,48.8,47.7,30.28,SE,135,2.0,4.0,96,0.00,,,0.00,0,Wunderground v.1.15,2013-05-20 01:17:00,
2013-05-19 21:22:00,48.8,47.7,30.28,SSE,158,3.0,3.0,96,0.00,,,0.00,0,Wunderground v.1.15,2013-05-20 01:22:00,
2013-05-19 21:28:00,48.7,47.6,30.29,SSE,164,2.0,6.0,96,0.00,,,0.00,0,Wunderground v.1.15,2013-05-20 01:28:00,
2013-05-19 21:33:00,48.7,47.6,30.29,SSE,165,2.0,7.0,96,0.00,,,0.00,0,Wunderground v.1.15,2013-05-20 01:33:00,
2013-05-19 21:38:00,48.7,47.6,30.29,SE,132,2.0,7.0,96,0.00,,,0.00,0,Wunderground v.1.15,2013-05-20 01:38:00,
2013-05-19 21:43:00,48.7,47.6,30.29,SE,145,2.0,2.0,96,0.00,,,0.00,0,Wunderground v.1.15,2013-05-20 01:43:00,
2013-05-19 21:49:00,48.7,47.6,30.29,SSW,206,1.0,3.0,96,0.00,,,0.00,0,Wunderground v.1.15,2013-05-20 01:49:00,
2013-05-19 21:54:00,48.7,47.6,30.29,SSE,152,2.0,5.0,96,0.00,,,0.00,0,Wunderground v.1.15,2013-05-20 01:54:00,
2013-05-19 22:00:00,48.7,47.6,30.29,SSE,159,3.0,4.0,96,0.00,,,0.00,0,Wunderground v.1.15,2013-05-20 02:00:00,
2013-05-19 22:06:00,48.6,47.8,30.29,SSE,150,3.0,5.0,97,0.00,,,0.00,0,Wunderground v.1.15,2013-05-20 02:06:00,
2013-05-19 22:11:00,48.6,47.8,30.29,SSE,157,3.0,4.0,97,0.00,,,0.00,0,Wunderground v.1.15,2013-05-20 02:11:00,
2013-05-19 22:17:00,48.6,47.8,30.29,South,183,2.0,5.0,97,0.00,,,0.00,0,Wunderground v.1.15,2013-05-20 02:17:00,
2013-05-19 22:22:00,48.6,47.8,30.29,South,188,2.0,3.0,97,0.00,,,0.00,0,Wunderground v.1.15,2013-05-20 02:22:00,
2013-05-19 22:27:00,48.7,47.9,30.29,SSE,168,2.0,3.0,97,0.00,,,0.00,0,Wunderground v.1.15,2013-05-20 02:27:00,
2013-05-19 22:33:00,48.7,47.9,30.28,SSW,198,2.0,5.0,97,0.00,,,0.00,0,Wunderground v.1.15,2013-05-20 02:33:00,
2013-05-19 22:38:00,48.8,48.0,30.28,SSW,196,3.0,6.0,97,0.00,,,0.00,0,Wunderground v.1.15,2013-05-20 02:38:00,
2013-05-19 22:43:00,48.8,48.0,30.28,SSE,153,3.0,4.0,97,0.00,,,0.00,0,Wunderground v.1.15,2013-05-20 02:43:00,
2013-05-19 22:48:00,48.9,48.1,30.28,SSE,148,2.0,4.0,97,0.00,,,0.01,0,Wunderground v.1.15,2013-05-20 02:48:00,
2013-05-19 22:53:00,48.9,48.1,30.28,South,174,2.0,4.0,97,0.00,,,0.01,0,Wunderground v.1.15,2013-05-20 02:53:00,
2013-05-19 22:59:00,49.0,48.2,30.27,South,190,2.0,6.0,97,0.04,,,0.01,0,Wunderground v.1.15,2013-05-20 02:59:00,
2013-05-19 23:05:00,49.0,48.2,30.27,SSW,194,2.0,5.0,97,0.04,,,0.02,0,Wunderground v.1.15,2013-05-20 03:05:00,
2013-05-19 23:11:00,49.0,48.2,30.27,SW,219,2.0,2.0,97,0.04,,,0.02,0,Wunderground v.1.15,2013-05-20 03:11:00,
2013-05-19 23:16:00,49.0,48.2,30.27,SSE,166,2.0,2.0,97,0.04,,,0.02,0,Wunderground v.1.15,2013-05-20 03:16:00,
2013-05-19 23:21:00,49.1,48.3,30.26,South,169,2.0,3.0,97,0.00,,,0.02,0,Wunderground v.1.15,2013-05-20 03:21:00,
2013-05-19 23:26:00,49.1,48.6,30.27,South,173,1.0,3.0,98,0.00,,,0.03,0,Wunderground v.1.15,2013-05-20 03:26:00,
2013-05-19 23:31:00,49.2,48.7,30.26,South,170,0.0,2.0,98,0.00,,,0.03,0,Wunderground v.1.15,2013-05-20 03:31:00,
2013-05-19 23:36:00,49.2,48.7,30.26,SSE,148,0.0,2.0,98,0.00,,,0.03,0,Wunderground v.1.15,2013-05-20 03:36:00,
2013-05-19 23:41:00,49.2,48.7,30.26,South,169,1.0,2.0,98,0.00,,,0.03,0,Wunderground v.1.15,2013-05-20 03:41:00,
2013-05-19 23:46:00,49.3,48.8,30.25,South,182,1.0,3.0,98,0.00,,,0.03,0,Wunderground v.1.15,2013-05-20 03:46:00,
2013-05-19 23:52:00,49.4,48.9,30.25,SSE,161,2.0,4.0,98,0.00,,,0.03,0,Wunderground v.1.15,2013-05-20 03:52:00,
2013-05-19 23:57:00,49.5,49.0,30.25,SW,215,2.0,4.0,98,0.00,,,0.03,0,Wunderground v.1.15,2013-05-20 03:57:00,